Location: Zilina
(49.2170°N, 18.7330°E)
Time: 18:41:41
(UTC+02:00)

ISS - Pass Details

Date: 30 March 2019
Orbit: 408 x 410 km, 51.6° (Epoch: 20 April)

Event Time Altitude Azimuth Distance (km) Brightness Sun altitude
Rises 20:52:04 0° 289° (WNW) 2,340 1.2 -24.5°
Reaches altitude 10° 20:54:09 10° 289° (WNW) 1,476 -0.1 -24.7°
Enters shadow 20:55:57 30° 288° (WNW) 773 -1.9 -25.0°
